User: anonymous   Login
Location: Caltech
(34.1382°N, 118.1253°W)
Time: 03:15:55
(UTC-07:00)
Language:

OAO 1 Rocket - Orbit

View from above orbital plane
View from above orbital plane
View from above satellite
View from above satellite

Ground track
Ground track

The orbit data is extracted from the following two-line orbital elements,

1 02144U 66031B   15085.32404362  .00000467  00000-0  14525-3 0  9997
2 02144 035.0436 027.6488 0008514 168.6655 191.4227 14.42369151570525
Epoch (UTC): 26 March 2015 07:46:37
Eccentricity: 0.0008514
inclination: 35.0436°
perigee height: 744 km
apogee height: 757 km
right ascension of ascending node: 27.6488°
argument of perigee: 168.6655°
revolutions per day: 14.42369151
mean anomaly at epoch: 191.4227°
orbit number at epoch: 57052

The dashed part of the orbit path shows where the satellite is in the earth's shadow,  

DLR